Kentucky Lake Weather Center

Moon Phase Calendar



Kentucky Lake Water Level
Online Cameras

 


      

Current Conditions in Paris
8/16/2022 7:53:44 AM

70°F
Feels Like 71
Rain
Humidity
96%
Pressure
30"
Wind
5.3 mph (NNE)
Dew Point
69°F
UV Index
0/10 (Low)
Visibility
6 mi

Hourly Forecast

Date & Time Tue, Aug 16
7:00 AM
Tue, Aug 16
8:00 AM
Tue, Aug 16
9:00 AM
Tue, Aug 16
10:00 AM
Tue, Aug 16
11:00 AM
Tue, Aug 16
12:00 PM
Tue, Aug 16
1:00 PM
Tue, Aug 16
2:00 PM
Tue, Aug 16
3:00 PM
Tue, Aug 16
4:00 PM
Tue, Aug 16
5:00 PM
Tue, Aug 16
6:00 PM
Tue, Aug 16
7:00 PM
Tue, Aug 16
8:00 PM
Tue, Aug 16
9:00 PM
Tue, Aug 16
10:00 PM
Tue, Aug 16
11:00 PM
Wed, Aug 17
12:00 AM
Wed, Aug 17
1:00 AM
Wed, Aug 17
2:00 AM
Wed, Aug 17
3:00 AM
Wed, Aug 17
4:00 AM
Wed, Aug 17
5:00 AM
Wed, Aug 17
6:00 AM
Wed, Aug 17
7:00 AM
Wed, Aug 17
8:00 AM
Wed, Aug 17
9:00 AM
Wed, Aug 17
10:00 AM
Wed, Aug 17
11:00 AM
Wed, Aug 17
12:00 PM
Wed, Aug 17
1:00 PM
Wed, Aug 17
2:00 PM
Wed, Aug 17
3:00 PM
Wed, Aug 17
4:00 PM
Wed, Aug 17
5:00 PM
Wed, Aug 17
6:00 PM
Wed, Aug 17
7:00 PM
Wed, Aug 17
8:00 PM
Wed, Aug 17
9:00 PM
Wed, Aug 17
10:00 PM
Wed, Aug 17
11:00 PM
Thu, Aug 18
12:00 AM
Thu, Aug 18
1:00 AM
Thu, Aug 18
2:00 AM
Thu, Aug 18
3:00 AM
Thu, Aug 18
4:00 AM
Thu, Aug 18
5:00 AM
Thu, Aug 18
6:00 AM
Condition
Clouds

Rain

Rain

Rain

Clouds

Clouds

Clouds

Clouds

Rain

Rain

Rain

Clouds

Clouds

Clouds

Clouds

Clouds

Clouds

Clouds

Clouds

Clouds

Clouds

Clouds

Clouds

Clouds

Clouds

Clouds

Clouds

Clouds

Clouds

Clouds

Clouds

Clouds

Clouds

Clouds

Clouds

Clouds

Clouds

Clouds

Clouds

Clouds

Clouds

Clouds

Clouds

Clouds

Clouds

Clouds

Clouds

Clouds
Temperature 69°F70°F70°F71°F71°F72°F73°F73°F69°F67°F67°F68°F68°F66°F65°F65°F64°F64°F64°F64°F63°F63°F62°F61°F62°F66°F69°F72°F72°F75°F77°F78°F80°F81°F81°F80°F75°F73°F72°F71°F68°F66°F66°F64°F65°F65°F65°F63°F
Feels Like 71°F71°F72°F72°F72°F72°F74°F74°F70°F68°F68°F69°F69°F67°F66°F65°F65°F65°F65°F65°F64°F63°F62°F62°F63°F66°F69°F72°F72°F75°F77°F78°F80°F82°F81°F80°F75°F73°F72°F71°F68°F66°F66°F64°F65°F65°F65°F63°F
Cloudiness 92%100%98%97%97%97%97%100%100%100%100%100%100%92%65%50%56%57%64%99%100%99%97%89%77%43%70%80%85%88%90%100%100%100%100%100%100%100%100%100%100%100%100%50%73%65%61%54%
Visibility 6 mi6 mi6 mi6 mi6 mi6 mi6 mi6 mi6 mi6 mi6 mi6 mi6 mi6 mi6 mi6 mi6 mi6 mi6 mi6 mi6 mi6 mi6 mi6 mi6 mi6 mi6 mi6 mi6 mi6 mi6 mi6 mi6 mi6 mi6 mi6 mi6 mi6 mi6 mi6 mi6 mi6 mi6 mi6 mi6 mi6 mi6 mi6 mi
Precipitation 0%20%20%20%0%0%5%43%71%89%88%88%88%0%0%0%0%0%0%0%0%0%0%0%0%0%0%0%1%1%1%0%0%0%0%0%0%0%0%0%0%0%0%0%0%0%0%0%
Humidity 95%96%91%86%84%80%73%71%86%93%94%93%94%96%97%96%96%96%95%94%95%96%95%95%93%87%78%69%66%60%54%53%49%46%46%56%63%64%64%66%73%79%81%85%84%82%81%86%
Dew Point 68°F69°F68°F67°F66°F65°F64°F63°F64°F65°F66°F66°F66°F65°F64°F63°F63°F63°F63°F63°F62°F61°F60°F60°F60°F62°F62°F61°F60°F60°F59°F59°F59°F59°F59°F62°F61°F60°F59°F59°F59°F59°F60°F59°F59°F59°F59°F59°F
Pressure 30"30"30"30"30"30"30.03"30"30.03"30"30"30"30"29.97"29.97"29.97"30"30"30"30"30"29.97"30"30"30"30.03"30.03"30.03"30.03"30.03"30"30"29.97"29.94"29.94"29.94"29.94"29.97"29.97"29.97"29.94"29.97"29.97"29.97"29.97"29.97"29.97"29.97"
Wind Speed 3.7 mph5.3 mph5.8 mph6 mph4.5 mph4.7 mph4.4 mph6.2 mph8 mph2.7 mph3.6 mph3.8 mph4.2 mph3.7 mph4.1 mph4.2 mph4 mph5 mph4.6 mph3.9 mph4.3 mph5.2 mph4.8 mph5.1 mph4.8 mph6 mph5.7 mph5.4 mph5.1 mph4.8 mph4.7 mph3.9 mph2.9 mph2.7 mph2.3 mph2.6 mph2.4 mph0.3 mph3 mph3.3 mph4.6 mph2.3 mph2.9 mph3.2 mph3.7 mph4.4 mph4.4 mph4.8 mph
Wind
Direction
25°
NNE
31°
NNE
28°
NNE
21°
NNE
16°
NNE
15°
NNE
342°
NNW
326°
NW
333°
NNW
324°
NW
319°
NW
319°
NW

N
29°
NNE
355°
N
62°
ENE
325°
NW
332°
NNW
19°
NNE
356°
N

N
22°
NNE
30°
NNE
36°
NE
31°
NNE
43°
NE
36°
NE
19°
NNE
30°
NNE
43°
NE
24°
NNE
19°
NNE
30°
NNE
57°
ENE
75°
ENE
139°
SE
140°
SE
65°
ENE
27°
NNE
28°
NNE
14°
NNE
316°
NW
322°
NW
338°
NNW
343°
NNW
353°
N
357°
N

N

Daily Forecast

Date High Low Precip. Humidity
Today
Aug 16

Rain
73 °F
64 °F
89%
80%
Wednesday
Aug 17

Clouds
81 °F
61 °F
1%
60%
Thursday
Aug 18

Clear
86 °F
63 °F
0%
39%
Friday
Aug 19

Clear
90 °F
64 °F
8%
34%
Saturday
Aug 20

Rain
87 °F
67 °F
65%
51%
Sunday
Aug 21

Rain
92 °F
69 °F
100%
44%
Monday
Aug 22

Rain
85 °F
67 °F
87%
52%
Tuesday
Aug 23

Rain
81 °F
66 °F
31%
63%
Wednesday
Aug 24

Rain
79 °F
67 °F
68%
76%
Thursday
Aug 25

Rain
79 °F
66 °F
32%
73%
Friday
Aug 26

Rain
84 °F
66 °F
76%
67%
Saturday
Aug 27

Rain
87 °F
70 °F
88%
60%
Sunday
Aug 28

Rain
75 °F
69 °F
82%
87%
Monday
Aug 29

Clouds
85 °F
64 °F
0%
45%
Tuesday
Aug 30

Clouds
86 °F
62 °F
0%
40%
Wednesday
Aug 31

Clouds
85 °F
62 °F
0%
37%

Temperature 8-14 Day Outlook



Precipitation 8-14 Day Outlook




Quick Links
Kentucky Lake News
Kentucky Lake Photos
Kentucky Lake Videos




About Us
Contact Us
Site Map
Search Site
Advertise With Us
   
www.GoKentuckyLake.com
THE KENTUCKY LAKE WEBSITE

Copyright 2022, Lakes Online
Privacy    |    Legal